[[{"header":{"parameterUnit":"m.s-1","parameterCategory":1,"la1":30.2991,"la2":30.254,"lo1":-89.0895,"lo2":-89.0444,"dy":0.0017,"dx":0.0017,"nx":28,"ny":28,"refTime":"2025-06-14T09:00:00:Z","depth":0,"parameterNumber":2,"parameterNumberName":"U-component_of_WINDS"},"data":[0,0,0,0,0,0,0,0,0,0,0,0,0,0,0,0,0,0,0,0,0,0,0,0,0,0,0,0,0,0,0,0,0,0,0,0,0,0,0,0,0,0,0,0,0,0,0,0,0,0,0,0,0,0,0,0,0,0,4.3345,4.3344,0,4.3301,4.3301,4.33,4.3176,4.3173,4.3171,4.3168,4.3125,4.3127,4.3128,0,0,0,0,0,0,0,0,0,0,0,0,0,4.332,4.3321,4.3345,4.3344,4.3344,4.3301,4.3301,4.33,4.3176,4.3173,4.317,4.3167,4.3125,4.3127,4.3128,0,0,0,0,0,0,0,0,0,0,0,0,0,4.331,4.3322,4.3345,4.3277,4.327,4.3301,4.3301,4.33,4.3177,4.3173,4.3169,4.3165,4.3124,4.3126,4.3129,4.3223,0,0,4.3135,4.3136,0,0,0,0,0,0,0,0,4.331,4.3311,4.3287,4.3282,4.3274,4.324,4.3276,4.3274,4.3178,4.3213,4.3168,4.3163,4.3167,4.3165,4.3166,4.3221,4.3219,4.3135,4.3136,4.3137,4.3138,0,0,0,0,0,0,0,4.3311,4.3312,4.3328,4.3287,4.3279,4.3248,4.3242,4.3275,4.3213,4.3209,4.32,4.3197,4.3163,4.3164,4.3164,4.3218,4.3135,4.3137,4.3138,4.3139,4.3343,4.3347,0,0,0,0,0,0,4.3322,4.3313,4.3329,4.3326,4.3283,4.3252,4.3245,4.3255,4.3212,4.3202,4.32,4.3191,4.3163,4.3162,4.3162,4.3265,4.3137,4.3139,4.314,4.3339,4.3344,4.3348,0,0,0,0,0,0,4.3322,4.3324,4.3331,4.3317,4.3316,4.3257,4.3269,4.3256,4.3258,4.3205,4.3194,4.3213,4.316,4.3159,4.3207,4.3262,4.314,4.3142,4.3334,4.334,4.3346,4.3475,0,0,0,0,0,0,4.3321,4.3325,4.336,4.3319,4.3317,4.3377,4.3272,4.3258,4.3261,4.3249,4.3215,4.3205,4.3156,4.3205,4.3209,4.3263,4.3144,4.3328,4.3337,4.3344,4.3465,4.3484,4.3501,0,0,0,0,0,4.3321,4.34,4.3363,4.3365,4.336,4.338,4.3379,4.3321,4.3267,4.3301,4.3267,4.3206,4.3256,4.3211,4.3215,4.327,4.3325,4.3334,4.3343,4.3457,4.3481,4.3501,0,0,0,0,0,0,4.3451,4.3393,4.3351,4.3419,4.3406,4.3359,4.3401,4.3349,4.335,4.3339,4.3267,4.326,4.3317,4.3299,4.3249,4.3356,4.328,4.3291,4.3365,4.3387,4.3405,4.3406,4.3145,0,0,0,0,0,4.3487,4.3509,4.3458,4.3522,4.3517,4.3461,4.3468,4.3424,4.3407,4.3401,4.337,4.3356,4.3368,4.3377,4.3386,4.3463,4.3451,4.3503,4.3521,4.3536,4.3544,4.3579,4.3599,4.3379,4.3379,4.3379,0,0,4.3563,4.3534,4.3552,4.3548,4.3531,4.3554,4.3457,4.3486,4.3501,4.3405,4.3446,4.3424,4.3404,4.3465,4.3491,4.3452,4.3603,4.3548,4.356,4.356,4.359,4.3611,4.363,4.3385,4.3384,4.3383,0,0,4.3711,4.3693,4.3742,4.3728,4.3704,4.3666,4.3678,4.3639,4.362,4.3661,4.3587,4.3605,4.3629,4.3615,4.3612,4.3753,4.3695,4.3758,4.385,4.3885,4.3902,4.3917,4.3962,4.398,4.3768,4.3768,4.3768,0,4.3807,4.3838,4.3775,4.3807,4.3805,4.3719,4.3767,4.3756,4.3738,4.3738,4.3695,4.3719,4.37,4.3754,4.3788,4.379,4.3799,4.376,4.3905,4.3919,4.3932,4.3974,4.3992,4.3776,4.3775,4.3774,4.3773,0,4.3955,4.3978,4.4021,4.4002,4.4006,4.4047,4.3989,4.4001,4.3957,4.3922,4.3963,4.3937,4.3936,4.3947,4.3906,4.3995,4.397,4.3918,4.3839,4.3961,4.3999,4.4016,4.3786,4.3783,4.3781,4.3779,0,0,4.4182,4.4127,4.4143,4.4131,4.4098,4.4114,4.415,4.4148,4.4157,4.4148,4.4174,4.4195,4.4144,4.414,4.4096,4.4127,4.4234,4.4069,4.4067,4.4096,4.4325,4.4362,4.4382,4.4197,4.42,4.4203,4.4325,0,4.4318,4.4374,4.4317,4.4385,4.4402,4.432,4.435,4.4333,4.4302,4.4312,4.4279,4.4292,4.4227,4.4223,4.4251,4.4215,4.4278,4.4206,4.4218,4.4219,4.422,4.4403,4.4442,4.4559,4.434,4.4343,4.4345,0,4.4483,4.4477,4.4546,4.4505,4.451,4.4539,4.453,4.4542,4.452,4.4495,4.449,4.4436,4.4466,4.4393,4.4432,4.4384,4.4386,4.437,4.4373,4.4368,4.4286,4.4398,4.4595,4.4611,4.4369,4.4367,4.4365,0,4.4634,4.4646,4.4686,4.468,4.4635,4.4656,4.4638,4.4612,4.4613,4.4606,4.4605,4.4604,4.4602,4.4601,4.4547,4.4499,4.4591,4.4515,4.4569,4.457,4.4588,4.4587,4.4784,4.4599,4.4598,4.4598,4.4598,0,4.4789,4.4833,4.4753,4.4778,4.4824,4.4759,4.4806,4.478,4.4757,4.4774,4.4705,4.4723,4.4653,4.4663,4.4622,4.4657,4.4659,4.4637,4.4625,4.4641,4.4643,4.4637,4.4626,4.4602,4.4601,4.4601,4.46,0,4.4964,4.4914,4.4952,4.4905,4.4894,4.493,4.4889,4.4909,4.4874,4.4896,4.4898,4.4842,4.485,4.4797,4.4796,4.4768,4.4822,4.4798,4.4829,4.4819,4.4874,4.4868,4.5071,4.5092,4.4898,4.49,4.4902,0,4.5063,4.5095,4.505,4.5056,4.5041,4.5053,4.5052,4.499,4.4993,4.4968,4.4991,4.4993,4.499,4.5006,4.4965,4.4963,4.4935,4.5007,4.4934,4.4948,4.493,4.4926,4.4927,4.502,4.5023,4.5025,4.5026,0,4.5243,4.5216,4.5218,4.5211,4.5212,4.5204,4.5192,4.5201,4.5132,4.5139,4.5145,4.5143,4.514,4.5141,4.5131,4.5111,4.5056,4.505,4.5061,4.5075,4.5089,4.5077,4.4864,4.5045,4.5043,4.5041,4.504,4.504,4.538,4.5402,4.5373,4.5377,4.536,4.5349,4.5364,4.533,4.5334,4.5325,4.5289,4.5301,4.5275,4.5254,4.524,4.5247,4.5213,4.5231,4.5234,4.5239,4.5246,4.5092,4.5246,4.5246,4.5245,4.5245,4.5244,0,4.5551,4.5528,4.5532,4.5515,4.5518,4.5467,4.5449,4.5454,4.5465,4.5446,4.5444,4.5449,4.545,4.5409,4.5403,4.5417,4.5391,4.5417,4.5413,4.5408,4.528,4.5268,4.5437,4.5437,4.5437,4.5437,4.5437,4.5437,4.564,4.5672,4.5642,4.5665,4.5642,4.5651,4.5645,4.5634,4.5617,4.5626,4.5625,4.5598,4.5569,4.5561,4.5558,4.5546,4.5545,4.5578,4.5557,4.5437,4.5418,4.54,4.5388,4.558,4.558,4.5684,4.5685,4.5686]},{"header":{"parameterUnit":"m.s-1","parameterCategory":1,"la1":30.2991,"la2":30.254,"lo1":-89.0895,"lo2":-89.0444,"dy":0.0017,"dx":0.0017,"nx":28,"ny":28,"refTime":"2025-06-14T09:00:00:Z","depth":0,"parameterNumber":3,"parameterNumberName":"V-component_of_WINDS"},"data":[0,0,0,0,0,0,0,0,0,0,0,0,0,0,0,0,0,0,0,0,0,0,0,0,0,0,0,0,0,0,0,0,0,0,0,0,0,0,0,0,0,0,0,0,0,0,0,0,0,0,0,0,0,0,0,0,0,0,4.7835,4.7837,0,4.8039,4.8042,4.8044,4.8076,4.8074,4.8072,4.8071,4.8272,4.8278,4.8285,0,0,0,0,0,0,0,0,0,0,0,0,0,4.7463,4.7469,4.7835,4.7837,4.784,4.8039,4.8042,4.8044,4.8076,4.8074,4.8072,4.807,4.8269,4.8278,4.8286,0,0,0,0,0,0,0,0,0,0,0,0,0,4.7641,4.7471,4.7834,4.788,4.7886,4.8038,4.8042,4.8045,4.8077,4.8074,4.8071,4.8069,4.8267,4.8277,4.8287,4.8405,0,0,4.8319,4.8324,0,0,0,0,0,0,0,0,4.7631,4.7655,4.7871,4.7877,4.7884,4.803,4.7984,4.8166,4.8077,4.8004,4.8071,4.8068,4.8193,4.8209,4.8253,4.8415,4.8423,4.832,4.8327,4.8331,4.8334,0,0,0,0,0,0,0,4.7618,4.7646,4.7915,4.7874,4.7882,4.7887,4.7909,4.8019,4.8111,4.801,4.8013,4.8037,4.8196,4.8243,4.8258,4.8426,4.832,4.8329,4.8336,4.834,4.8691,4.8694,0,0,0,0,0,0,4.7599,4.7635,4.7909,4.7922,4.7749,4.7896,4.7921,4.7985,4.811,4.8126,4.8039,4.8038,4.8226,4.8246,4.8265,4.841,4.8331,4.8341,4.8347,4.8688,4.8692,4.8695,0,0,0,0,0,0,4.7591,4.7623,4.7901,4.778,4.7815,4.7905,4.7977,4.7991,4.8038,4.8132,4.8147,4.8071,4.8225,4.825,4.837,4.8417,4.8346,4.8355,4.8684,4.8689,4.8693,4.87,0,0,0,0,0,0,4.758,4.762,4.7669,4.778,4.7822,4.8005,4.798,4.7997,4.8057,4.8057,4.8166,4.8181,4.8225,4.8354,4.838,4.843,4.8363,4.8681,4.8686,4.8692,4.8696,4.8705,4.8712,0,0,0,0,0,4.7567,4.7662,4.7671,4.7704,4.7885,4.8008,4.8031,4.8082,4.8061,4.8109,4.8168,4.8178,4.8408,4.8366,4.8396,4.845,4.8678,4.8685,4.8691,4.8693,4.8703,4.8712,0,0,0,0,0,0,4.7551,4.7677,4.7689,4.7824,4.7905,4.8014,4.8076,4.8092,4.8179,4.8175,4.8232,4.8256,4.8372,4.8423,4.8374,4.8568,4.854,4.8554,4.8531,4.8542,4.8549,4.8534,4.8372,0,0,0,0,0,4.7564,4.7657,4.776,4.7869,4.7909,4.7985,4.8041,4.8073,4.8158,4.8192,4.8261,4.8341,4.8431,4.8489,4.8578,4.8704,4.8725,4.8755,4.8762,4.8768,4.8778,4.8845,4.8859,4.8717,4.8717,4.8717,0,0,4.759,4.767,4.7725,4.7868,4.7935,4.8026,4.8014,4.8112,4.8179,4.8206,4.8324,4.8376,4.8469,4.8592,4.8649,4.8638,4.8822,4.8777,4.8781,4.8788,4.8854,4.8867,4.8879,4.8722,4.8721,4.872,0,0,4.7685,4.7756,4.7853,4.792,4.8022,4.8072,4.8094,4.82,4.8237,4.8356,4.8377,4.8456,4.8611,4.8675,4.8728,4.8843,4.8854,4.887,4.891,4.8974,4.8986,4.8996,4.9034,4.9048,4.888,4.888,4.888,0,4.7704,4.7846,4.79,4.7997,4.8057,4.8088,4.8184,4.8245,4.837,4.8409,4.8395,4.8588,4.8653,4.8789,4.8817,4.886,4.8885,4.8858,4.898,4.8991,4.9001,4.9038,4.9053,4.8881,4.8881,4.8881,4.8881,0,4.7862,4.796,4.8025,4.8147,4.8214,4.831,4.8376,4.8437,4.8462,4.8511,4.8629,4.8708,4.8811,4.8846,4.8871,4.8985,4.8974,4.8969,4.8942,4.9015,4.905,4.9065,4.8883,4.8883,4.8882,4.8882,0,0,4.7955,4.8104,4.8127,4.8181,4.8294,4.8369,4.8463,4.8567,4.8617,4.87,4.8779,4.8908,4.8904,4.8963,4.8995,4.9052,4.9134,4.904,4.9043,4.9053,4.9261,4.9263,4.9279,4.9142,4.9145,4.9147,4.9252,0,4.8061,4.8236,4.8286,4.8431,4.852,4.8548,4.863,4.8706,4.8754,4.8833,4.8884,4.8974,4.8963,4.8999,4.9056,4.9112,4.9176,4.9105,4.9213,4.9216,4.9188,4.9298,4.9302,4.9397,4.9267,4.9269,4.9271,0,4.821,4.8298,4.8453,4.8552,4.8591,4.8665,4.8761,4.8838,4.8923,4.8953,4.9019,4.9045,4.914,4.9108,4.9239,4.9189,4.9235,4.9269,4.9274,4.9285,4.9247,4.9311,4.9429,4.9443,4.9294,4.9292,4.9291,0,4.8259,4.8416,4.8528,4.8574,4.8693,4.8743,4.8795,4.8877,4.8935,4.9018,4.9055,4.9147,4.9197,4.9266,4.9315,4.9287,4.944,4.9412,4.9465,4.9463,4.9496,4.9493,4.9622,4.9527,4.9527,4.9527,4.9526,0,4.8373,4.8465,4.8552,4.8621,4.8724,4.8779,4.8878,4.893,4.9003,4.9079,4.9108,4.9178,4.9239,4.9316,4.9354,4.9455,4.9477,4.9502,4.951,4.9499,4.9495,4.9529,4.9523,4.9531,4.953,4.9529,4.9528,0,4.8445,4.8508,4.8631,4.8734,4.8761,4.8832,4.8918,4.8984,4.9031,4.9128,4.9153,4.9227,4.9319,4.9374,4.949,4.9516,4.9626,4.9633,4.9598,4.9602,4.9651,4.9644,4.9805,4.9827,4.9719,4.972,4.9721,0,4.8514,4.8586,4.8696,4.875,4.8803,4.889,4.8949,4.9003,4.9063,4.9163,4.9216,4.931,4.9389,4.9533,4.9595,4.9683,4.9691,4.9741,4.9704,4.9689,4.9689,4.9684,4.969,4.9747,4.9748,4.9748,4.9749,0,4.8627,4.8653,4.8739,4.8835,4.8904,4.8982,4.9058,4.91,4.9167,4.9231,4.9327,4.9388,4.9506,4.9598,4.969,4.9739,4.9754,4.976,4.9776,4.9765,4.9741,4.9752,4.9614,4.9756,4.9755,4.9755,4.9755,4.9754,4.8698,4.8763,4.885,4.8943,4.9006,4.9076,4.9143,4.9199,4.928,4.9383,4.9409,4.9508,4.9586,4.9713,4.9763,4.9839,4.9831,4.9855,4.9861,4.9866,4.9866,4.973,4.9856,4.9856,4.9856,4.9855,4.9855,0,4.8811,4.8868,4.8954,4.906,4.9132,4.9143,4.9227,4.9285,4.9373,4.9447,4.9523,4.9631,4.9719,4.9787,4.9877,4.9924,4.9932,4.9945,4.9942,4.9952,4.9869,4.9845,4.9936,4.9936,4.9936,4.9936,4.9936,4.9936,4.8879,4.8988,4.9024,4.9162,4.9217,4.9317,4.9364,4.9427,4.9486,4.9606,4.968,4.9724,4.9794,4.9889,4.9969,4.9986,5.0016,5.0028,5.0046,4.9967,4.9958,4.995,4.9927,5.0034,5.0034,5.0122,5.0123,5.0123]}]]